Location: Lichtensteig
(47.3376°N, 9.0841°E)
Time: 00:26:44
(UTC+00:00)

ATLAS CENTAUR R/B - Pass Details

Date: 03 March 2021
Orbit: 475 x 670 km, 64.7° (Epoch: 30 March)

Event Time Altitude Azimuth Distance (km) Brightness Sun altitude
Rises 19:58:01 0° 253° (WSW) 2,520 5.4 -28.4°
Reaches altitude 10° 20:00:29 10° 269° (W) 1,646 4.5 -28.8°
Enters shadow 20:03:16 22° 319° (NW) 1,103 3.4 -29.2°
